FW0527 Weather Reports


Display with metric or nautical units.
time (UTC)temp
F
wind
direction
speed
MPH
gust
MPH
rain 1hr
in
rain 24hr
in
rain mn
in
humidity
%
barometer
mb
20260509183004 86 342 0.0 1.0 0.00 0.00 0.00 18 1012.4
20260509181502 86 306 0.0 1.0 0.00 0.00 0.00 18 1012.4
20260509180101 85 280 0.0 1.0 0.00 0.00 0.00 20 1012.3
20260509174555 83 300 0.0 0.0 0.00 0.00 0.00 18 1012.3
20260509173052 82 300 0.0 0.0 0.00 0.00 0.00 19 1012.3
20260509171548 80 304 0.0 0.0 0.00 0.00 0.00 21 1012.4
20260509170043 79 310 0.0 0.0 0.00 0.00 0.00 23 1012.5
20260509164547 76 300 0.0 0.0 0.00 0.00 0.00 19 1012.4
20260509163037 74 331 0.0 0.0 0.00 0.00 0.00 24 1012.3
20260509161530 71 308 0.0 0.0 0.00 0.00 0.00 33 1012.2
20260509160026 67 307 0.0 0.0 0.00 0.00 0.00 35 1012.1
20260509154521 62 307 0.0 0.0 0.00 0.00 0.00 48 1011.9
20260509153017 57 307 0.0 0.0 0.00 0.00 0.00 55 1012.1
20260509151513 54 307 0.0 0.0 0.00 0.00 0.00 62 1012.1
20260509150016 53 307 0.0 0.0 0.00 0.00 0.00 72 1012.0
20260509144505 52 307 0.0 0.0 0.00 0.00 0.00 75 1012.1
20260509143002 50 307 0.0 0.0 0.00 0.00 0.00 74 1012.2
20260509141600 49 307 0.0 0.0 0.00 0.00 0.00 73 1012.1
20260509140104 49 307 0.0 0.0 0.00 0.00 0.00 70 1011.9
20260509134626 48 307 0.0 0.0 0.00 0.00 0.00 70 1011.8
20260509133058 47 307 0.0 0.0 0.00 0.00 0.00 71 1011.7
20260509131555 47 307 0.0 0.0 0.00 0.00 0.00 69 1011.7
20260509130053 46 307 0.0 0.0 0.00 0.00 0.00 67 1011.7
20260509124552 46 307 0.0 0.0 0.00 0.00 0.00 64 1011.7
20260509123053 46 307 0.0 0.0 0.00 0.00 0.00 60 1011.7
20260509121552 46 307 0.0 0.0 0.00 0.00 0.00 56 1011.6
20260509120049 46 307 0.0 0.0 0.00 0.00 0.00 53 1011.6
20260509114548 46 307 0.0 0.0 0.00 0.00 0.00 52 1011.7
20260509113051 46 307 0.0 0.0 0.00 0.00 0.00 56 1011.7
20260509111546 46 307 0.0 0.0 0.00 0.00 0.00 57 1011.7
20260509110043 47 307 0.0 0.0 0.00 0.00 0.00 57 1011.7
20260509104540 47 307 0.0 0.0 0.00 0.00 0.00 60 1011.9
20260509103038 47 307 0.0 0.0 0.00 0.00 0.00 63 1011.9
20260509101548 47 307 0.0 0.0 0.00 0.00 0.00 63 1012.1
20260509100035 48 307 0.0 0.0 0.00 0.00 0.00 65 1012.1
20260509094533 48 307 0.0 0.0 0.00 0.00 0.00 64 1012.2
20260509093033 48 307 0.0 0.0 0.00 0.00 0.00 64 1012.2
20260509091528 49 307 0.0 0.0 0.00 0.00 0.00 63 1012.5
20260509090026 49 307 0.0 0.0 0.00 0.00 0.00 62 1012.7
20260509084526 49 307 0.0 0.0 0.00 0.00 0.00 59 1012.7
20260509083022 49 307 0.0 0.0 0.00 0.00 0.00 57 1012.8
20260509081521 49 307 0.0 0.0 0.00 0.00 0.00 55 1012.8
20260509080021 49 307 0.0 0.0 0.00 0.00 0.00 54 1012.8
20260509074517 50 307 0.0 0.0 0.00 0.00 0.00 54 1013.0
20260509073015 50 307 0.0 0.0 0.00 0.00 0.00 53 1013.2
20260509071513 50 307 0.0 0.0 0.00 0.00 0.00 48 1013.3
20260509070010 50 307 0.0 0.0 0.00 0.00 0.00 47 1013.3
20260509064510 50 307 0.0 0.0 0.00 0.00 0.00 46 1013.3
20260509063009 51 307 0.0 0.0 0.00 0.00 0.00 46 1013.3
20260509061508 51 307 0.0 0.0 0.00 0.00 0.00 47 1013.4
20260509060008 51 307 0.0 0.0 0.00 0.00 0.00 45 1013.3
20260509054507 52 307 0.0 0.0 0.00 0.00 0.00 45 1013.2
20260509053007 52 307 0.0 0.0 0.00 0.00 0.00 45 1013.2
20260509051511 53 307 0.0 0.0 0.00 0.00 0.00 45 1013.2
20260509050005 53 307 0.0 0.0 0.00 0.00 0.00 46 1013.1
20260509044505 54 307 0.0 0.0 0.00 0.00 0.00 45 1013.1
20260509043005 55 307 0.0 0.0 0.00 0.00 0.00 46 1012.9
20260509041504 56 307 0.0 0.0 0.00 0.00 0.00 47 1012.8
20260509040003 57 307 0.0 0.0 0.00 0.00 0.00 45 1012.7
20260509034511 59 307 0.0 0.0 0.00 0.00 0.00 43 1012.6
20260509033002 62 307 0.0 0.0 0.00 0.00 0.00 46 1012.4
20260509031501 64 307 0.0 0.0 0.00 0.00 0.00 46 1012.3
20260509030000 66 307 0.0 0.0 0.00 0.00 0.00 44 1012.3
20260509024600 67 307 0.0 0.0 0.00 0.00 0.00 43 1012.2
20260509023100 69 307 0.0 0.0 0.00 0.00 0.00 42 1012.2
20260509021600 69 323 0.0 0.0 0.00 0.00 0.00 41 1012.1
20260509020059 70 297 0.0 2.0 0.00 0.00 0.00 39 1012.2
20260509014558 71 348 0.0 3.0 0.00 0.00 0.00 37 1012.2
20260509013059 72 309 0.0 9.0 0.00 0.00 0.00 35 1012.2
20260509011558 73 333 0.0 3.0 0.00 0.00 0.00 33 1012.3
20260509004620 75 324 0.0 11.0 0.00 0.00 0.00 31 1012.3
20260509003055 75 292 0.0 13.0 0.00 0.00 0.00 29 1012.1
20260509001555 76 323 0.0 13.0 0.00 0.00 0.00 29 1012.3
20260509000053 76 43 0.0 17.0 0.00 0.00 0.00 27 1012.4
20260508234552 77 292 0.0 9.0 0.00 0.00 0.00 32 1012.4
20260508233052 77 293 2.0 12.0 0.00 0.00 0.00 31 1012.3
20260508231555 78 313 0.0 11.0 0.00 0.00 0.00 35 1012.4
20260508230051 79 297 1.0 10.0 0.00 0.00 0.00 34 1012.5
20260508224551 80 315 0.0 2.0 0.00 0.00 0.00 30 1012.6
20260508223049 81 355 0.0 5.0 0.00 0.00 0.00 26 1012.7
20260508221543 82 350 0.0 9.0 0.00 0.00 0.00 24 1013.0
20260508220040 83 305 1.0 12.0 0.00 0.00 0.00 23 1013.3
20260508214555 83 5 0.0 11.0 0.00 0.00 0.00 22 1013.3
20260508213037 83 311 0.0 16.0 0.00 0.00 0.00 23 1013.3
20260508211636 84 283 0.0 16.0 0.00 0.00 0.00 20 1013.4
20260508210037 83 316 1.0 12.0 0.00 0.00 0.00 17 1013.6
20260508204536 83 288 1.0 13.0 0.00 0.00 0.00 22 1013.7
20260508203031 83 313 1.0 15.0 0.00 0.00 0.00 22 1013.6
20260508201531 83 351 0.0 12.0 0.00 0.00 0.00 20 1013.8
20260508200037 83 325 0.0 14.0 0.00 0.00 0.00 23 1013.9
20260508194528 83 317 0.0 11.0 0.00 0.00 0.00 21 1013.9
20260508193035 83 360 2.0 18.0 0.00 0.00 0.00 17 1014.1
20260508191532 83 355 1.0 19.0 0.00 0.00 0.00 19 1014.1
20260508190044 82 324 2.0 14.0 0.00 0.00 0.00 19 1014.0
20260508184625 82 303 0.0 14.0 0.00 0.00 0.00 20 1014.1